[[{"header":{"parameterUnit":"m.s-1","parameterCategory":1,"la1":30.2991,"la2":30.254,"lo1":-89.0895,"lo2":-89.0444,"dy":0.0017,"dx":0.0017,"nx":28,"ny":28,"refTime":"2023-09-22T03:00:00:Z","depth":0,"parameterNumber":2,"parameterNumberName":"U-component_of_WINDS"},"data":[0,0,0,0,0,0,0,0,0,0,0,0,0,0,0,0,0,0,0,0,0,0,0,0,0,0,0,0,0,0,0,0,0,0,0,0,0,0,0,0,0,0,0,0,0,0,0,0,0,0,0,0,0,0,0,0,0,0,-2.0658,-2.0659,0,-2.0754,-2.0755,-2.0756,-2.0709,-2.0707,-2.0704,-2.0702,-2.0799,-2.0804,-2.0809,0,0,0,0,0,0,0,0,0,0,0,0,0,-2.0434,-2.0438,-2.0658,-2.0659,-2.0661,-2.0754,-2.0755,-2.0756,-2.071,-2.0707,-2.0704,-2.0701,-2.0797,-2.0803,-2.0809,0,0,0,0,0,0,0,0,0,0,0,0,0,-2.053,-2.0439,-2.0658,-2.0649,-2.0649,-2.0754,-2.0755,-2.0757,-2.071,-2.0707,-2.0703,-2.07,-2.0795,-2.0803,-2.081,-2.0929,0,0,-2.0832,-2.0835,0,0,0,0,0,0,0,0,-2.0525,-2.0539,-2.0649,-2.065,-2.065,-2.0716,-2.0711,-2.0814,-2.0711,-2.0687,-2.0702,-2.0698,-2.0774,-2.0783,-2.0809,-2.0933,-2.0938,-2.0833,-2.0837,-2.084,-2.0842,0,0,0,0,0,0,0,-2.0518,-2.0534,-2.0696,-2.065,-2.0651,-2.0639,-2.0649,-2.0731,-2.075,-2.0689,-2.0686,-2.0698,-2.0774,-2.0802,-2.0811,-2.0939,-2.0833,-2.0839,-2.0844,-2.0846,-2.1165,-2.1169,0,0,0,0,0,0,-2.0512,-2.0529,-2.0693,-2.0699,-2.0577,-2.0646,-2.0657,-2.0698,-2.0749,-2.0753,-2.0701,-2.0695,-2.0791,-2.0803,-2.0814,-2.0957,-2.084,-2.0847,-2.0851,-2.1161,-2.1166,-2.117,0,0,0,0,0,0,-2.0508,-2.0527,-2.0689,-2.0613,-2.0633,-2.0654,-2.0701,-2.0702,-2.0731,-2.0758,-2.0761,-2.0726,-2.0789,-2.0804,-2.0901,-2.0959,-2.085,-2.0857,-2.1156,-2.1162,-2.1168,-2.1243,0,0,0,0,0,0,-2.0501,-2.0526,-2.0572,-2.0615,-2.0637,-2.0775,-2.0705,-2.0707,-2.0743,-2.0737,-2.0783,-2.0787,-2.0787,-2.089,-2.0908,-2.0967,-2.0863,-2.1151,-2.1159,-2.1166,-2.1235,-2.1251,-2.1264,0,0,0,0,0,-2.0493,-2.0589,-2.0574,-2.0594,-2.0695,-2.0778,-2.0791,-2.079,-2.0748,-2.0794,-2.0812,-2.0786,-2.095,-2.09,-2.092,-2.0983,-2.1147,-2.1157,-2.1166,-2.1229,-2.1248,-2.1264,0,0,0,0,0,0,-2.0552,-2.0594,-2.0579,-2.0691,-2.0731,-2.077,-2.0828,-2.081,-2.0863,-2.0854,-2.085,-2.0861,-2.0961,-2.0981,-2.0925,-2.11,-2.1042,-2.1056,-2.1083,-2.1102,-2.1116,-2.1109,-2.0869,0,0,0,0,0,-2.0578,-2.0643,-2.0676,-2.0772,-2.0793,-2.0807,-2.0843,-2.0839,-2.088,-2.0897,-2.0922,-2.0963,-2.1023,-2.1064,-2.1121,-2.1238,-2.1247,-2.1291,-2.1305,-2.1317,-2.1328,-2.1391,-2.1411,-2.12,-2.12,-2.12,0,0,-2.0633,-2.0664,-2.0705,-2.0784,-2.0815,-2.0881,-2.0822,-2.0895,-2.0944,-2.0908,-2.1001,-2.102,-2.1066,-2.1173,-2.1221,-2.1193,-2.1388,-2.1328,-2.1337,-2.1343,-2.1403,-2.1422,-2.144,-2.1207,-2.1206,-2.1205,0,0,-2.0766,-2.0796,-2.0879,-2.0911,-2.0958,-2.0967,-2.0987,-2.1029,-2.1041,-2.1134,-2.1108,-2.1166,-2.1271,-2.1304,-2.1335,-2.148,-2.1458,-2.1499,-2.1574,-2.1635,-2.1652,-2.1667,-2.1718,-2.1737,-2.1511,-2.1511,-2.1511,0,-2.0827,-2.0927,-2.0924,-2.0999,-2.1034,-2.1005,-2.1089,-2.112,-2.1183,-2.1208,-2.1176,-2.1307,-2.1335,-2.1449,-2.1485,-2.1511,-2.1533,-2.1494,-2.165,-2.1665,-2.1678,-2.1727,-2.1747,-2.1515,-2.1515,-2.1514,-2.1514,0,-2.1,-2.1069,-2.113,-2.1193,-2.1235,-2.1314,-2.1322,-2.1366,-2.1357,-2.1369,-2.1464,-2.1497,-2.1561,-2.1588,-2.158,-2.1701,-2.1682,-2.165,-2.1591,-2.1703,-2.1749,-2.1768,-2.1522,-2.1521,-2.1519,-2.1518,0,0,-2.1173,-2.1233,-2.1255,-2.1283,-2.1333,-2.1386,-2.1463,-2.1526,-2.1562,-2.1607,-2.1672,-2.1761,-2.1732,-2.1766,-2.1762,-2.1816,-2.1928,-2.1777,-2.1778,-2.1804,-2.2063,-2.2087,-2.2108,-2.1914,-2.1917,-2.192,-2.2059,0,-2.1309,-2.1445,-2.1444,-2.1569,-2.1633,-2.1606,-2.1673,-2.1711,-2.1724,-2.1779,-2.1794,-2.1857,-2.1814,-2.1835,-2.1887,-2.1904,-2.198,-2.1894,-2.1973,-2.1976,-2.1962,-2.2133,-2.2158,-2.2287,-2.2077,-2.208,-2.2082,0,-2.1487,-2.1537,-2.1669,-2.1709,-2.1736,-2.1796,-2.1853,-2.1907,-2.1948,-2.1954,-2.1993,-2.1981,-2.2059,-2.1998,-2.2105,-2.2046,-2.2078,-2.2092,-2.2097,-2.2104,-2.2036,-2.2144,-2.2329,-2.2348,-2.2111,-2.2108,-2.2106,0,-2.1599,-2.17,-2.1792,-2.1817,-2.1866,-2.1909,-2.1931,-2.197,-2.2007,-2.2057,-2.2081,-2.2139,-2.217,-2.2215,-2.2219,-2.2174,-2.2326,-2.2266,-2.2333,-2.2333,-2.2366,-2.2364,-2.2558,-2.2388,-2.2387,-2.2387,-2.2387,0,-2.1751,-2.1833,-2.1843,-2.19,-2.199,-2.1988,-2.2077,-2.2096,-2.213,-2.2189,-2.2169,-2.2225,-2.2226,-2.2283,-2.2286,-2.2374,-2.2388,-2.2395,-2.2395,-2.2397,-2.2396,-2.2417,-2.2408,-2.2392,-2.2391,-2.239,-2.2389,0,-2.1892,-2.1903,-2.2001,-2.2039,-2.2051,-2.2116,-2.2148,-2.2202,-2.2213,-2.2288,-2.2305,-2.2323,-2.2389,-2.2397,-2.2474,-2.2476,-2.2581,-2.2572,-2.2568,-2.2566,-2.2632,-2.2626,-2.2847,-2.2876,-2.2687,-2.2689,-2.269,0,-2.1988,-2.205,-2.2096,-2.2134,-2.2159,-2.2221,-2.2259,-2.2259,-2.23,-2.2352,-2.2399,-2.2463,-2.2514,-2.262,-2.264,-2.2698,-2.269,-2.2763,-2.2698,-2.2698,-2.269,-2.2686,-2.2692,-2.2776,-2.2778,-2.2779,-2.2781,0,-2.2158,-2.216,-2.2216,-2.2274,-2.232,-2.2365,-2.2408,-2.244,-2.2446,-2.2492,-2.2559,-2.2599,-2.2677,-2.2741,-2.2798,-2.2821,-2.2802,-2.2801,-2.282,-2.2822,-2.2817,-2.282,-2.2601,-2.2796,-2.2794,-2.2793,-2.2793,-2.2792,-2.2279,-2.2333,-2.2373,-2.2436,-2.2468,-2.2508,-2.256,-2.2578,-2.2634,-2.2698,-2.2695,-2.2769,-2.2808,-2.2884,-2.2911,-2.2968,-2.2944,-2.2971,-2.2977,-2.2984,-2.299,-2.2808,-2.2979,-2.2978,-2.2978,-2.2978,-2.2977,0,-2.2447,-2.2472,-2.2529,-2.259,-2.2639,-2.2617,-2.2663,-2.2705,-2.2771,-2.281,-2.2861,-2.2938,-2.2999,-2.3023,-2.3083,-2.3125,-2.3118,-2.3141,-2.3137,-2.3143,-2.3009,-2.2987,-2.3145,-2.3145,-2.3145,-2.3145,-2.3145,-2.3145,-2.254,-2.263,-2.2637,-2.2742,-2.2765,-2.2838,-2.2866,-2.2903,-2.2934,-2.3021,-2.3072,-2.3087,-2.312,-2.3182,-2.3238,-2.3243,-2.3266,-2.3293,-2.3294,-2.3169,-2.3152,-2.3136,-2.3115,-2.3298,-2.3298,-2.3423,-2.3424,-2.3425]},{"header":{"parameterUnit":"m.s-1","parameterCategory":1,"la1":30.2991,"la2":30.254,"lo1":-89.0895,"lo2":-89.0444,"dy":0.0017,"dx":0.0017,"nx":28,"ny":28,"refTime":"2023-09-22T03:00:00:Z","depth":0,"parameterNumber":3,"parameterNumberName":"V-component_of_WINDS"},"data":[0,0,0,0,0,0,0,0,0,0,0,0,0,0,0,0,0,0,0,0,0,0,0,0,0,0,0,0,0,0,0,0,0,0,0,0,0,0,0,0,0,0,0,0,0,0,0,0,0,0,0,0,0,0,0,0,0,0,-1.6685,-1.6686,0,-1.6831,-1.6833,-1.6834,-1.6905,-1.6905,-1.6905,-1.6905,-1.7055,-1.7059,-1.7063,0,0,0,0,0,0,0,0,0,0,0,0,0,-1.6465,-1.6469,-1.6684,-1.6686,-1.6688,-1.6831,-1.6833,-1.6835,-1.6905,-1.6905,-1.6905,-1.6905,-1.7053,-1.7058,-1.7063,0,0,0,0,0,0,0,0,0,0,0,0,0,-1.6581,-1.647,-1.6684,-1.674,-1.6747,-1.683,-1.6833,-1.6835,-1.6905,-1.6905,-1.6905,-1.6905,-1.7052,-1.7058,-1.7064,-1.7103,0,0,-1.7082,-1.7085,0,0,0,0,0,0,0,0,-1.6574,-1.6589,-1.673,-1.6736,-1.6744,-1.685,-1.6811,-1.6925,-1.6905,-1.6845,-1.6905,-1.6905,-1.6986,-1.6998,-1.7026,-1.711,-1.7116,-1.7083,-1.7086,-1.7089,-1.7091,0,0,0,0,0,0,0,-1.6566,-1.6583,-1.6742,-1.6732,-1.674,-1.6758,-1.6774,-1.6833,-1.6914,-1.685,-1.6855,-1.6872,-1.699,-1.7019,-1.703,-1.7118,-1.7082,-1.7088,-1.7092,-1.7094,-1.7243,-1.7243,0,0,0,0,0,0,-1.6549,-1.6576,-1.6738,-1.6747,-1.6657,-1.6762,-1.678,-1.6816,-1.6914,-1.6929,-1.6872,-1.6875,-1.7009,-1.7022,-1.7035,-1.7088,-1.7089,-1.7095,-1.7098,-1.7242,-1.7243,-1.7243,0,0,0,0,0,0,-1.6544,-1.6563,-1.6732,-1.6663,-1.6686,-1.6766,-1.6805,-1.6819,-1.6848,-1.693,-1.6945,-1.6887,-1.701,-1.7027,-1.7086,-1.7094,-1.7097,-1.7103,-1.7242,-1.7242,-1.7243,-1.7193,0,0,0,0,0,0,-1.6537,-1.6561,-1.6576,-1.6663,-1.6689,-1.6779,-1.6806,-1.6822,-1.6858,-1.6863,-1.6948,-1.6962,-1.7011,-1.7076,-1.7091,-1.7102,-1.7108,-1.7242,-1.7242,-1.7243,-1.7194,-1.7192,-1.719,0,0,0,0,0,-1.6529,-1.6556,-1.6576,-1.6596,-1.671,-1.678,-1.6795,-1.685,-1.6859,-1.6875,-1.6928,-1.696,-1.709,-1.7081,-1.7099,-1.7112,-1.7241,-1.7242,-1.7243,-1.7195,-1.7192,-1.719,0,0,0,0,0,0,-1.6468,-1.6568,-1.6592,-1.6648,-1.6705,-1.6791,-1.6814,-1.6845,-1.6901,-1.6904,-1.697,-1.6989,-1.7042,-1.7083,-1.7071,-1.7156,-1.7169,-1.7173,-1.7127,-1.7125,-1.7122,-1.7111,-1.7113,0,0,0,0,0,-1.6461,-1.6509,-1.6594,-1.6635,-1.6662,-1.6733,-1.6765,-1.6803,-1.6865,-1.6889,-1.6947,-1.7005,-1.706,-1.7095,-1.7149,-1.7201,-1.722,-1.7218,-1.7216,-1.7214,-1.7217,-1.7248,-1.7248,-1.7245,-1.7245,-1.7245,0,0,-1.6447,-1.6508,-1.6534,-1.6624,-1.6673,-1.6721,-1.6753,-1.6803,-1.6839,-1.6897,-1.6956,-1.7,-1.707,-1.7126,-1.7153,-1.7162,-1.7222,-1.7215,-1.7212,-1.7217,-1.7248,-1.7249,-1.7249,-1.7246,-1.7246,-1.7246,0,0,-1.6446,-1.6496,-1.6536,-1.6585,-1.6658,-1.6705,-1.6714,-1.6797,-1.6828,-1.6889,-1.6933,-1.6978,-1.707,-1.7119,-1.7155,-1.7173,-1.7205,-1.7189,-1.7177,-1.7207,-1.7207,-1.7207,-1.7214,-1.7216,-1.7192,-1.7192,-1.7192,0,-1.6419,-1.6494,-1.6553,-1.66,-1.6639,-1.6694,-1.6735,-1.6779,-1.6866,-1.6891,-1.69,-1.7018,-1.7069,-1.7136,-1.7141,-1.7168,-1.7182,-1.718,-1.7202,-1.7203,-1.7204,-1.7212,-1.7214,-1.719,-1.719,-1.719,-1.719,0,-1.6457,-1.6509,-1.6532,-1.6615,-1.6657,-1.67,-1.6766,-1.6801,-1.6835,-1.6881,-1.6942,-1.7006,-1.7074,-1.7093,-1.7127,-1.7166,-1.717,-1.7189,-1.7204,-1.7201,-1.7209,-1.7213,-1.7186,-1.7187,-1.7188,-1.7188,0,0,-1.6422,-1.6537,-1.6545,-1.6584,-1.6669,-1.671,-1.6756,-1.6824,-1.6853,-1.6911,-1.6952,-1.7029,-1.7048,-1.709,-1.713,-1.7155,-1.7166,-1.7172,-1.7175,-1.7169,-1.7214,-1.7199,-1.7201,-1.7188,-1.7188,-1.7189,-1.7208,0,-1.6433,-1.6519,-1.6574,-1.6638,-1.6686,-1.6739,-1.678,-1.6837,-1.6881,-1.6929,-1.6978,-1.7032,-1.7053,-1.7078,-1.7106,-1.7159,-1.7176,-1.7158,-1.7227,-1.7229,-1.7208,-1.7206,-1.719,-1.7205,-1.7212,-1.7213,-1.7213,0,-1.6457,-1.6515,-1.6584,-1.6664,-1.6687,-1.6722,-1.6789,-1.6834,-1.6899,-1.693,-1.6977,-1.7017,-1.7069,-1.7079,-1.7152,-1.7138,-1.717,-1.72,-1.7202,-1.7211,-1.7221,-1.7214,-1.7211,-1.7213,-1.7218,-1.7218,-1.7218,0,-1.6425,-1.6519,-1.6573,-1.6605,-1.67,-1.6724,-1.6764,-1.683,-1.6867,-1.6926,-1.6951,-1.7014,-1.7049,-1.7097,-1.7154,-1.7156,-1.7221,-1.7236,-1.7248,-1.7247,-1.726,-1.7258,-1.7261,-1.7279,-1.7279,-1.7279,-1.7279,0,-1.6432,-1.6472,-1.656,-1.6593,-1.664,-1.6702,-1.6747,-1.6792,-1.685,-1.6894,-1.6943,-1.6983,-1.7055,-1.7104,-1.7148,-1.7202,-1.7217,-1.7244,-1.7255,-1.724,-1.7236,-1.7261,-1.7262,-1.728,-1.728,-1.7279,-1.7279,0,-1.6403,-1.6463,-1.6526,-1.6611,-1.6633,-1.6664,-1.6737,-1.6772,-1.6819,-1.6873,-1.6889,-1.6963,-1.7023,-1.7085,-1.7165,-1.7196,-1.7248,-1.7264,-1.7226,-1.7232,-1.7241,-1.724,-1.7261,-1.7267,-1.728,-1.728,-1.7279,0,-1.6403,-1.6436,-1.6524,-1.6557,-1.6596,-1.6648,-1.6686,-1.6749,-1.6788,-1.6865,-1.689,-1.6954,-1.7008,-1.7101,-1.7162,-1.7225,-1.7242,-1.7246,-1.7252,-1.7235,-1.7243,-1.724,-1.7244,-1.7243,-1.7243,-1.7242,-1.7242,0,-1.6398,-1.6426,-1.648,-1.6544,-1.6588,-1.6642,-1.6697,-1.6721,-1.6795,-1.6835,-1.6897,-1.6939,-1.7022,-1.7084,-1.7154,-1.7197,-1.7232,-1.7239,-1.7246,-1.723,-1.7207,-1.722,-1.7219,-1.7239,-1.7239,-1.7239,-1.7239,-1.7239,-1.6384,-1.6415,-1.6483,-1.6541,-1.6589,-1.664,-1.6677,-1.6729,-1.6781,-1.6854,-1.6888,-1.695,-1.7016,-1.7113,-1.7155,-1.7205,-1.7215,-1.7224,-1.7226,-1.7227,-1.7224,-1.7199,-1.7218,-1.7218,-1.7218,-1.7218,-1.7218,0,-1.6381,-1.6427,-1.648,-1.6556,-1.6602,-1.6631,-1.6694,-1.6731,-1.6785,-1.6843,-1.6896,-1.6967,-1.7028,-1.7095,-1.716,-1.7187,-1.7205,-1.7202,-1.7201,-1.721,-1.7211,-1.7199,-1.7187,-1.7187,-1.7187,-1.7187,-1.7187,-1.7187,-1.6385,-1.644,-1.6477,-1.6556,-1.6603,-1.6664,-1.6697,-1.6745,-1.6792,-1.6869,-1.692,-1.6963,-1.7025,-1.7096,-1.7153,-1.7171,-1.7193,-1.7186,-1.7208,-1.7208,-1.721,-1.7212,-1.7202,-1.719,-1.719,-1.7204,-1.7204,-1.7204]}]]